owner,sensor,date,latitude,longitude,vertical_datum,mass_concentration_of_oxygen_in_sea_water,qcFlag 
DISL,ioos:station:DISL:MHPA:1,2017-09-01T00:00:00Z,30.6671,-87.9365,1.434,8.79,1111122 
DISL,ioos:station:DISL:MHPA:1,2017-09-01T00:30:00Z,30.6671,-87.9365,1.405,8.77,1111122 
DISL,ioos:station:DISL:MHPA:1,2017-09-01T01:00:00Z,30.6671,-87.9365,1.375,8.67,1111122 
DISL,ioos:station:DISL:MHPA:1,2017-09-01T01:30:00Z,30.6671,-87.9365,1.349,8.31,1111122 
DISL,ioos:station:DISL:MHPA:1,2017-09-01T02:00:00Z,30.6671,-87.9365,1.327,8.25,1111122 
DISL,ioos:station:DISL:MHPA:1,2017-09-01T02:30:00Z,30.6671,-87.9365,1.323,8.26,1111122 
DISL,ioos:station:DISL:MHPA:1,2017-09-01T03:00:00Z,30.6671,-87.9365,1.321,8.06,1111122 
DISL,ioos:station:DISL:MHPA:1,2017-09-01T03:30:00Z,30.6671,-87.9365,1.336,8.32,1111122 
DISL,ioos:station:DISL:MHPA:1,2017-09-01T04:00:00Z,30.6671,-87.9365,1.339,7.56,1111122 
DISL,ioos:station:DISL:MHPA:1,2017-09-01T04:30:00Z,30.6671,-87.9365,1.316,7.9,1111122 
DISL,ioos:station:DISL:MHPA:1,2017-09-01T05:00:00Z,30.6671,-87.9365,1.311,7.54,1111122 
DISL,ioos:station:DISL:MHPA:1,2017-09-01T05:30:00Z,30.6671,-87.9365,1.327,7.48,1111122 
DISL,ioos:station:DISL:MHPA:1,2017-09-01T06:00:00Z,30.6671,-87.9365,1.342,7.58,1111122 
DISL,ioos:station:DISL:MHPA:1,2017-09-01T06:30:00Z,30.6671,-87.9365,1.35,7.34,1111122 
DISL,ioos:station:DISL:MHPA:1,2017-09-01T07:00:00Z,30.6671,-87.9365,1.327,6.98,1111122 
DISL,ioos:station:DISL:MHPA:1,2017-09-01T07:30:00Z,30.6671,-87.9365,1.343,6.89,1111122 
DISL,ioos:station:DISL:MHPA:1,2017-09-01T08:00:00Z,30.6671,-87.9365,1.332,6.76,1111122 
DISL,ioos:station:DISL:MHPA:1,2017-09-01T08:30:00Z,30.6671,-87.9365,1.318,6.6,1111122 
DISL,ioos:station:DISL:MHPA:1,2017-09-01T09:00:00Z,30.6671,-87.9365,1.344,6.39,1111122 
DISL,ioos:station:DISL:MHPA:1,2017-09-01T09:30:00Z,30.6671,-87.9365,1.364,6.64,1111122 
DISL,ioos:station:DISL:MHPA:1,2017-09-01T10:00:00Z,30.6671,-87.9365,1.365,6.56,1111122 
DISL,ioos:station:DISL:MHPA:1,2017-09-01T10:30:00Z,30.6671,-87.9365,1.375,6.41,1111122 
DISL,ioos:station:DISL:MHPA:1,2017-09-01T11:00:00Z,30.6671,-87.9365,1.406,6.18,1111122 
DISL,ioos:station:DISL:MHPA:1,2017-09-01T11:30:00Z,30.6671,-87.9365,1.41,6.33,1111122 
DISL,ioos:station:DISL:MHPA:1,2017-09-01T12:00:00Z,30.6671,-87.9365,1.422,6.14,1111122 
DISL,ioos:station:DISL:MHPA:1,2017-09-01T12:30:00Z,30.6671,-87.9365,1.434,5.75,1111122 
DISL,ioos:station:DISL:MHPA:1,2017-09-01T13:00:00Z,30.6671,-87.9365,1.432,5.98,1111122 
DISL,ioos:station:DISL:MHPA:1,2017-09-01T13:30:00Z,30.6671,-87.9365,1.414,5.74,1111122 
DISL,ioos:station:DISL:MHPA:1,2017-09-01T14:00:00Z,30.6671,-87.9365,1.424,5.71,1111122 
DISL,ioos:station:DISL:MHPA:1,2017-09-01T14:30:00Z,30.6671,-87.9365,1.422,5.33,1111122 
DISL,ioos:station:DISL:MHPA:1,2017-09-01T15:00:00Z,30.6671,-87.9365,1.413,5.06,1111122 
DISL,ioos:station:DISL:MHPA:1,2017-09-01T15:30:00Z,30.6671,-87.9365,1.401,5.42,1111122 
DISL,ioos:station:DISL:MHPA:1,2017-09-01T16:00:00Z,30.6671,-87.9365,1.399,5.6,1111122 
DISL,ioos:station:DISL:MHPA:1,2017-09-01T16:30:00Z,30.6671,-87.9365,1.369,5.35,1111122 
DISL,ioos:station:DISL:MHPA:1,2017-09-01T17:00:00Z,30.6671,-87.9365,1.338,6.79,1111122 
DISL,ioos:station:DISL:MHPA:1,2017-09-01T17:30:00Z,30.6671,-87.9365,1.325,6.81,1111122 
DISL,ioos:station:DISL:MHPA:1,2017-09-01T18:00:00Z,30.6671,-87.9365,1.287,6.36,1111122 
DISL,ioos:station:DISL:MHPA:1,2017-09-01T18:30:00Z,30.6671,-87.9365,1.261,7.84,1111122 
DISL,ioos:station:DISL:MHPA:1,2017-09-01T19:00:00Z,30.6671,-87.9365,1.239,8.06,1111122 
DISL,ioos:station:DISL:MHPA:1,2017-09-01T19:30:00Z,30.6671,-87.9365,1.225,8.5,1111122 
DISL,ioos:station:DISL:MHPA:1,2017-09-01T20:00:00Z,30.6671,-87.9365,1.207,9.91,1111122 
DISL,ioos:station:DISL:MHPA:1,2017-09-01T20:30:00Z,30.6671,-87.9365,1.166,10.75,1111122 
DISL,ioos:station:DISL:MHPA:1,2017-09-01T21:00:00Z,30.6671,-87.9365,1.162,10.21,1111122 
DISL,ioos:station:DISL:MHPA:1,2017-09-01T21:30:00Z,30.6671,-87.9365,1.135,9.3,1111122 
DISL,ioos:station:DISL:MHPA:1,2017-09-01T22:00:00Z,30.6671,-87.9365,1.11,8.24,1111122 
DISL,ioos:station:DISL:MHPA:1,2017-09-01T22:30:00Z,30.6671,-87.9365,1.099,8.58,1111122 
DISL,ioos:station:DISL:MHPA:1,2017-09-01T23:00:00Z,30.6671,-87.9365,1.104,9.35,1111122 
DISL,ioos:station:DISL:MHPA:1,2017-09-01T23:30:00Z,30.6671,-87.9365,1.085,9.28,1111122 
DISL,ioos:station:DISL:MHPA:1,2017-09-02T00:00:00Z,30.6671,-87.9365,1.092,8.99,1111122 
DISL,ioos:station:DISL:MHPA:1,2017-09-02T00:30:00Z,30.6671,-87.9365,1.103,9.2,1111122 
DISL,ioos:station:DISL:MHPA:1,2017-09-02T01:00:00Z,30.6671,-87.9365,1.088,9.22,1111122 
DISL,ioos:station:DISL:MHPA:1,2017-09-02T01:30:00Z,30.6671,-87.9365,1.065,7.14,1111122 
DISL,ioos:station:DISL:MHPA:1,2017-09-02T02:00:00Z,30.6671,-87.9365,1.031,8.07,1111122 
DISL,ioos:station:DISL:MHPA:1,2017-09-02T02:30:00Z,30.6671,-87.9365,1.042,8.61,1111122 
DISL,ioos:station:DISL:MHPA:1,2017-09-02T03:00:00Z,30.6671,-87.9365,1.045,8.58,1111122 
DISL,ioos:station:DISL:MHPA:1,2017-09-02T03:30:00Z,30.6671,-87.9365,1.053,8.25,1111122 
DISL,ioos:station:DISL:MHPA:1,2017-09-02T04:00:00Z,30.6671,-87.9365,1.092,7.89,1111122 
DISL,ioos:station:DISL:MHPA:1,2017-09-02T04:30:00Z,30.6671,-87.9365,1.124,7.78,1111122 
DISL,ioos:station:DISL:MHPA:1,2017-09-02T05:00:00Z,30.6671,-87.9365,1.147,7.21,1111122 
DISL,ioos:station:DISL:MHPA:1,2017-09-02T05:30:00Z,30.6671,-87.9365,1.187,7.95,1111122 
DISL,ioos:station:DISL:MHPA:1,2017-09-02T06:00:00Z,30.6671,-87.9365,1.196,7.56,1111122 
DISL,ioos:station:DISL:MHPA:1,2017-09-02T06:30:00Z,30.6671,-87.9365,1.194,7.59,1111122 
DISL,ioos:station:DISL:MHPA:1,2017-09-02T07:00:00Z,30.6671,-87.9365,1.246,6.61,1111122 
DISL,ioos:station:DISL:MHPA:1,2017-09-02T07:30:00Z,30.6671,-87.9365,1.219,7.13,1111122 
DISL,ioos:station:DISL:MHPA:1,2017-09-02T08:00:00Z,30.6671,-87.9365,1.213,6.57,1111122 
DISL,ioos:station:DISL:MHPA:1,2017-09-02T08:30:00Z,30.6671,-87.9365,1.261,6.68,1111122 
DISL,ioos:station:DISL:MHPA:1,2017-09-02T09:00:00Z,30.6671,-87.9365,1.259,6.42,1111122 
DISL,ioos:station:DISL:MHPA:1,2017-09-02T09:30:00Z,30.6671,-87.9365,1.262,6.78,1111122 
DISL,ioos:station:DISL:MHPA:1,2017-09-02T10:00:00Z,30.6671,-87.9365,1.27,6.35,1111122 
DISL,ioos:station:DISL:MHPA:1,2017-09-02T10:30:00Z,30.6671,-87.9365,1.272,6.26,1111122 
DISL,ioos:station:DISL:MHPA:1,2017-09-02T11:00:00Z,30.6671,-87.9365,1.288,6.29,1111122 
DISL,ioos:station:DISL:MHPA:1,2017-09-02T11:30:00Z,30.6671,-87.9365,1.316,6.1,1111122 
DISL,ioos:station:DISL:MHPA:1,2017-09-02T12:00:00Z,30.6671,-87.9365,1.297,5.89,1111122 
DISL,ioos:station:DISL:MHPA:1,2017-09-02T12:30:00Z,30.6671,-87.9365,1.307,5.71,1111122 
DISL,ioos:station:DISL:MHPA:1,2017-09-02T13:00:00Z,30.6671,-87.9365,1.33,5.39,1111122 
DISL,ioos:station:DISL:MHPA:1,2017-09-02T13:30:00Z,30.6671,-87.9365,1.318,5.94,1111122 
DISL,ioos:station:DISL:MHPA:1,2017-09-02T14:00:00Z,30.6671,-87.9365,1.312,5.89,1111122 
DISL,ioos:station:DISL:MHPA:1,2017-09-02T14:30:00Z,30.6671,-87.9365,1.332,6.23,1111122 
DISL,ioos:station:DISL:MHPA:1,2017-09-02T15:00:00Z,30.6671,-87.9365,1.353,6.48,1111122 
DISL,ioos:station:DISL:MHPA:1,2017-09-02T15:30:00Z,30.6671,-87.9365,1.353,7.05,1111122 
DISL,ioos:station:DISL:MHPA:1,2017-09-02T16:00:00Z,30.6671,-87.9365,1.357,7.13,1111122 
DISL,ioos:station:DISL:MHPA:1,2017-09-02T16:30:00Z,30.6671,-87.9365,1.352,7.66,1111122 
DISL,ioos:station:DISL:MHPA:1,2017-09-02T17:00:00Z,30.6671,-87.9365,1.333,7.95,1111122 
DISL,ioos:station:DISL:MHPA:1,2017-09-02T17:30:00Z,30.6671,-87.9365,1.324,8.16,1111122 
DISL,ioos:station:DISL:MHPA:1,2017-09-02T18:00:00Z,30.6671,-87.9365,1.296,8.57,1111122 
DISL,ioos:station:DISL:MHPA:1,2017-09-02T18:30:00Z,30.6671,-87.9365,1.257,7.68,1111122 
DISL,ioos:station:DISL:MHPA:1,2017-09-02T19:00:00Z,30.6671,-87.9365,1.226,8.59,1111122 
DISL,ioos:station:DISL:MHPA:1,2017-09-02T19:30:00Z,30.6671,-87.9365,1.22,10.22,1111122 
DISL,ioos:station:DISL:MHPA:1,2017-09-02T20:00:00Z,30.6671,-87.9365,1.221,10.2,1111122 
DISL,ioos:station:DISL:MHPA:1,2017-09-02T20:30:00Z,30.6671,-87.9365,1.163,8.79,1111122 
DISL,ioos:station:DISL:MHPA:1,2017-09-02T21:00:00Z,30.6671,-87.9365,1.113,10.07,1111122 
DISL,ioos:station:DISL:MHPA:1,2017-09-02T21:30:00Z,30.6671,-87.9365,1.087,10.79,1111122 
DISL,ioos:station:DISL:MHPA:1,2017-09-02T22:00:00Z,30.6671,-87.9365,1.051,6.34,1111122 
DISL,ioos:station:DISL:MHPA:1,2017-09-02T22:30:00Z,30.6671,-87.9365,1.019,7.7,1111122 
DISL,ioos:station:DISL:MHPA:1,2017-09-02T23:00:00Z,30.6671,-87.9365,0.995,8.37,1111122 
DISL,ioos:station:DISL:MHPA:1,2017-09-02T23:30:00Z,30.6671,-87.9365,0.977,8.5,1111122 
DISL,ioos:station:DISL:MHPA:1,2017-09-03T00:00:00Z,30.6671,-87.9365,0.96,9.49,1111122 
DISL,ioos:station:DISL:MHPA:1,2017-09-03T00:30:00Z,30.6671,-87.9365,0.945,9.63,1111122 
DISL,ioos:station:DISL:MHPA:1,2017-09-03T01:00:00Z,30.6671,-87.9365,0.936,8.81,1111122 
DISL,ioos:station:DISL:MHPA:1,2017-09-03T01:30:00Z,30.6671,-87.9365,0.922,8.55,1111122 
DISL,ioos:station:DISL:MHPA:1,2017-09-03T02:00:00Z,30.6671,-87.9365,0.92,8.01,1111122 
DISL,ioos:station:DISL:MHPA:1,2017-09-03T02:30:00Z,30.6671,-87.9365,0.933,7.66,1111122 
DISL,ioos:station:DISL:MHPA:1,2017-09-03T03:00:00Z,30.6671,-87.9365,0.952,8.18,1111122 
DISL,ioos:station:DISL:MHPA:1,2017-09-03T03:30:00Z,30.6671,-87.9365,0.928,8.32,1111122 
DISL,ioos:station:DISL:MHPA:1,2017-09-03T04:00:00Z,30.6671,-87.9365,0.959,7.66,1111122 
DISL,ioos:station:DISL:MHPA:1,2017-09-03T04:30:00Z,30.6671,-87.9365,1.014,7.38,1111122 
DISL,ioos:station:DISL:MHPA:1,2017-09-03T05:00:00Z,30.6671,-87.9365,1.037,6.31,1111122 
DISL,ioos:station:DISL:MHPA:1,2017-09-03T05:30:00Z,30.6671,-87.9365,1.052,6.14,1111122 
DISL,ioos:station:DISL:MHPA:1,2017-09-03T06:00:00Z,30.6671,-87.9365,1.087,6.9,1111122 
DISL,ioos:station:DISL:MHPA:1,2017-09-03T06:30:00Z,30.6671,-87.9365,1.117,7.28,1111122 
DISL,ioos:station:DISL:MHPA:1,2017-09-03T07:00:00Z,30.6671,-87.9365,1.136,6.96,1111122 
DISL,ioos:station:DISL:MHPA:1,2017-09-03T07:30:00Z,30.6671,-87.9365,1.161,7.02,1111122 
DISL,ioos:station:DISL:MHPA:1,2017-09-03T08:00:00Z,30.6671,-87.9365,1.188,6.9,1111122 
DISL,ioos:station:DISL:MHPA:1,2017-09-03T08:30:00Z,30.6671,-87.9365,1.187,6.38,1111122 
DISL,ioos:station:DISL:MHPA:1,2017-09-03T09:00:00Z,30.6671,-87.9365,1.192,6.72,1111122 
DISL,ioos:station:DISL:MHPA:1,2017-09-03T09:30:00Z,30.6671,-87.9365,1.2,6.07,1111122 
DISL,ioos:station:DISL:MHPA:1,2017-09-03T10:00:00Z,30.6671,-87.9365,1.21,5.89,1111122 
DISL,ioos:station:DISL:MHPA:1,2017-09-03T10:30:00Z,30.6671,-87.9365,1.217,5.69,1111122 
DISL,ioos:station:DISL:MHPA:1,2017-09-03T11:00:00Z,30.6671,-87.9365,1.255,6.76,1111122 
DISL,ioos:station:DISL:MHPA:1,2017-09-03T11:30:00Z,30.6671,-87.9365,1.277,6.81,1111122 
DISL,ioos:station:DISL:MHPA:1,2017-09-03T12:00:00Z,30.6671,-87.9365,1.294,6.42,1111122 
DISL,ioos:station:DISL:MHPA:1,2017-09-03T12:30:00Z,30.6671,-87.9365,1.327,5.87,1111122 
DISL,ioos:station:DISL:MHPA:1,2017-09-03T13:00:00Z,30.6671,-87.9365,1.359,6.56,1111122 
DISL,ioos:station:DISL:MHPA:1,2017-09-03T13:30:00Z,30.6671,-87.9365,1.381,6.22,1111122 
DISL,ioos:station:DISL:MHPA:1,2017-09-03T14:00:00Z,30.6671,-87.9365,1.404,6.35,1111122 
DISL,ioos:station:DISL:MHPA:1,2017-09-03T14:30:00Z,30.6671,-87.9365,1.412,6.34,1111122 
DISL,ioos:station:DISL:MHPA:1,2017-09-03T15:00:00Z,30.6671,-87.9365,1.412,5.85,1111122 
DISL,ioos:station:DISL:MHPA:1,2017-09-03T15:30:00Z,30.6671,-87.9365,1.416,5.98,1111122 
DISL,ioos:station:DISL:MHPA:1,2017-09-03T16:00:00Z,30.6671,-87.9365,1.401,5.68,1111122 
DISL,ioos:station:DISL:MHPA:1,2017-09-03T16:30:00Z,30.6671,-87.9365,1.391,5.74,1111122 
DISL,ioos:station:DISL:MHPA:1,2017-09-03T17:00:00Z,30.6671,-87.9365,1.386,6.46,1111122 
DISL,ioos:station:DISL:MHPA:1,2017-09-03T17:30:00Z,30.6671,-87.9365,1.356,6.59,1111122 
DISL,ioos:station:DISL:MHPA:1,2017-09-03T18:00:00Z,30.6671,-87.9365,1.316,7.0,1111122 
DISL,ioos:station:DISL:MHPA:1,2017-09-03T18:30:00Z,30.6671,-87.9365,1.285,7.05,1111122 
DISL,ioos:station:DISL:MHPA:1,2017-09-03T19:00:00Z,30.6671,-87.9365,1.254,7.22,1111122 
DISL,ioos:station:DISL:MHPA:1,2017-09-03T19:30:00Z,30.6671,-87.9365,1.211,8.2,1111122 
DISL,ioos:station:DISL:MHPA:1,2017-09-03T20:00:00Z,30.6671,-87.9365,1.166,8.31,1111122 
DISL,ioos:station:DISL:MHPA:1,2017-09-03T20:30:00Z,30.6671,-87.9365,1.131,8.17,1111122 
DISL,ioos:station:DISL:MHPA:1,2017-09-03T21:00:00Z,30.6671,-87.9365,1.096,7.95,1111122 
DISL,ioos:station:DISL:MHPA:1,2017-09-03T21:30:00Z,30.6671,-87.9365,1.07,7.86,1111122 
DISL,ioos:station:DISL:MHPA:1,2017-09-03T22:00:00Z,30.6671,-87.9365,1.047,7.72,1111122 
DISL,ioos:station:DISL:MHPA:1,2017-09-03T22:30:00Z,30.6671,-87.9365,1.014,7.7,1111122 
DISL,ioos:station:DISL:MHPA:1,2017-09-03T23:00:00Z,30.6671,-87.9365,0.981,7.92,1111122 
DISL,ioos:station:DISL:MHPA:1,2017-09-03T23:30:00Z,30.6671,-87.9365,0.956,8.04,1111122 
DISL,ioos:station:DISL:MHPA:1,2017-09-04T00:00:00Z,30.6671,-87.9365,0.934,8.11,1111122 
DISL,ioos:station:DISL:MHPA:1,2017-09-04T00:30:00Z,30.6671,-87.9365,0.909,8.02,1111122 
DISL,ioos:station:DISL:MHPA:1,2017-09-04T01:00:00Z,30.6671,-87.9365,0.899,8.1,1111122 
DISL,ioos:station:DISL:MHPA:1,2017-09-04T01:30:00Z,30.6671,-87.9365,0.907,8.12,1111122 
DISL,ioos:station:DISL:MHPA:1,2017-09-04T02:00:00Z,30.6671,-87.9365,0.908,7.72,1111122 
DISL,ioos:station:DISL:MHPA:1,2017-09-04T02:30:00Z,30.6671,-87.9365,0.907,7.93,1111122 
DISL,ioos:station:DISL:MHPA:1,2017-09-04T03:00:00Z,30.6671,-87.9365,0.93,8.05,1111122 
DISL,ioos:station:DISL:MHPA:1,2017-09-04T03:30:00Z,30.6671,-87.9365,0.957,7.24,1111122 
DISL,ioos:station:DISL:MHPA:1,2017-09-04T04:00:00Z,30.6671,-87.9365,0.976,6.32,1111122 
DISL,ioos:station:DISL:MHPA:1,2017-09-04T04:30:00Z,30.6671,-87.9365,0.996,6.84,1111122 
DISL,ioos:station:DISL:MHPA:1,2017-09-04T05:00:00Z,30.6671,-87.9365,1.032,6.83,1111122 
DISL,ioos:station:DISL:MHPA:1,2017-09-04T05:30:00Z,30.6671,-87.9365,1.068,7.01,1111122 
DISL,ioos:station:DISL:MHPA:1,2017-09-04T06:00:00Z,30.6671,-87.9365,1.093,6.75,1111122 
DISL,ioos:station:DISL:MHPA:1,2017-09-04T06:30:00Z,30.6671,-87.9365,1.128,6.81,1111122 
DISL,ioos:station:DISL:MHPA:1,2017-09-04T07:00:00Z,30.6671,-87.9365,1.163,6.4,1111122 
DISL,ioos:station:DISL:MHPA:1,2017-09-04T07:30:00Z,30.6671,-87.9365,1.187,5.5,1111122 
DISL,ioos:station:DISL:MHPA:1,2017-09-04T08:00:00Z,30.6671,-87.9365,1.192,5.22,1111122 
DISL,ioos:station:DISL:MHPA:1,2017-09-04T08:30:00Z,30.6671,-87.9365,1.213,4.93,1111122 
DISL,ioos:station:DISL:MHPA:1,2017-09-04T09:00:00Z,30.6671,-87.9365,1.223,4.94,1111122 
DISL,ioos:station:DISL:MHPA:1,2017-09-04T09:30:00Z,30.6671,-87.9365,1.232,4.99,1111122 
DISL,ioos:station:DISL:MHPA:1,2017-09-04T10:00:00Z,30.6671,-87.9365,1.242,5.05,1111122 
DISL,ioos:station:DISL:MHPA:1,2017-09-04T10:30:00Z,30.6671,-87.9365,1.257,4.92,1111122 
DISL,ioos:station:DISL:MHPA:1,2017-09-04T11:00:00Z,30.6671,-87.9365,1.279,4.57,1111122 
DISL,ioos:station:DISL:MHPA:1,2017-09-04T11:30:00Z,30.6671,-87.9365,1.293,4.47,1111122 
DISL,ioos:station:DISL:MHPA:1,2017-09-04T12:00:00Z,30.6671,-87.9365,1.312,4.06,1111122 
DISL,ioos:station:DISL:MHPA:1,2017-09-04T12:30:00Z,30.6671,-87.9365,1.344,5.22,1111122 
DISL,ioos:station:DISL:MHPA:1,2017-09-04T13:00:00Z,30.6671,-87.9365,1.355,5.01,1111122 
DISL,ioos:station:DISL:MHPA:1,2017-09-04T13:30:00Z,30.6671,-87.9365,1.377,5.27,1111122 
DISL,ioos:station:DISL:MHPA:1,2017-09-04T14:00:00Z,30.6671,-87.9365,1.402,5.18,1111122 
DISL,ioos:station:DISL:MHPA:1,2017-09-04T14:30:00Z,30.6671,-87.9365,1.414,5.25,1111122 
DISL,ioos:station:DISL:MHPA:1,2017-09-04T15:00:00Z,30.6671,-87.9365,1.428,5.63,1111122 
DISL,ioos:station:DISL:MHPA:1,2017-09-04T15:30:00Z,30.6671,-87.9365,1.447,5.78,1111122 
DISL,ioos:station:DISL:MHPA:1,2017-09-04T16:00:00Z,30.6671,-87.9365,1.442,5.84,1111122 
DISL,ioos:station:DISL:MHPA:1,2017-09-04T16:30:00Z,30.6671,-87.9365,1.445,5.1,1111122 
DISL,ioos:station:DISL:MHPA:1,2017-09-04T17:00:00Z,30.6671,-87.9365,1.441,6.33,1111122 
DISL,ioos:station:DISL:MHPA:1,2017-09-04T17:30:00Z,30.6671,-87.9365,1.43,6.73,1111122 
DISL,ioos:station:DISL:MHPA:1,2017-09-04T18:00:00Z,30.6671,-87.9365,1.405,6.2,1111122 
DISL,ioos:station:DISL:MHPA:1,2017-09-04T18:30:00Z,30.6671,-87.9365,1.39,6.02,1111122 
DISL,ioos:station:DISL:MHPA:1,2017-09-04T19:00:00Z,30.6671,-87.9365,1.358,6.51,1111122 
DISL,ioos:station:DISL:MHPA:1,2017-09-04T19:30:00Z,30.6671,-87.9365,1.332,7.66,1111122 
DISL,ioos:station:DISL:MHPA:1,2017-09-04T20:00:00Z,30.6671,-87.9365,1.299,7.51,1111122 
DISL,ioos:station:DISL:MHPA:1,2017-09-04T20:30:00Z,30.6671,-87.9365,1.263,7.13,1111122 
DISL,ioos:station:DISL:MHPA:1,2017-09-04T21:00:00Z,30.6671,-87.9365,1.226,6.55,1111122 
DISL,ioos:station:DISL:MHPA:1,2017-09-04T21:30:00Z,30.6671,-87.9365,1.195,6.95,1111122 
DISL,ioos:station:DISL:MHPA:1,2017-09-04T22:00:00Z,30.6671,-87.9365,1.161,6.5,1111122 
DISL,ioos:station:DISL:MHPA:1,2017-09-04T22:30:00Z,30.6671,-87.9365,1.126,6.62,1111122 
DISL,ioos:station:DISL:MHPA:1,2017-09-04T23:00:00Z,30.6671,-87.9365,1.093,6.27,1111122 
DISL,ioos:station:DISL:MHPA:1,2017-09-04T23:30:00Z,30.6671,-87.9365,1.069,6.46,1111122 
DISL,ioos:station:DISL:MHPA:1,2017-09-05T00:00:00Z,30.6671,-87.9365,1.042,6.65,1111122 
DISL,ioos:station:DISL:MHPA:1,2017-09-05T00:30:00Z,30.6671,-87.9365,1.026,6.34,1111122 
DISL,ioos:station:DISL:MHPA:1,2017-09-05T01:00:00Z,30.6671,-87.9365,1.017,6.27,1111122 
DISL,ioos:station:DISL:MHPA:1,2017-09-05T01:30:00Z,30.6671,-87.9365,1.015,6.03,1111122 
DISL,ioos:station:DISL:MHPA:1,2017-09-05T02:00:00Z,30.6671,-87.9365,1.011,6.11,1111122 
DISL,ioos:station:DISL:MHPA:1,2017-09-05T02:30:00Z,30.6671,-87.9365,1.005,6.32,1111122 
DISL,ioos:station:DISL:MHPA:1,2017-09-05T03:00:00Z,30.6671,-87.9365,1.012,5.89,1111122 
DISL,ioos:station:DISL:MHPA:1,2017-09-05T03:30:00Z,30.6671,-87.9365,1.027,5.71,1111122 
DISL,ioos:station:DISL:MHPA:1,2017-09-05T04:00:00Z,30.6671,-87.9365,1.051,5.42,1111122 
DISL,ioos:station:DISL:MHPA:1,2017-09-05T04:30:00Z,30.6671,-87.9365,1.062,5.35,1111122 
DISL,ioos:station:DISL:MHPA:1,2017-09-05T05:00:00Z,30.6671,-87.9365,1.087,5.66,1111122 
DISL,ioos:station:DISL:MHPA:1,2017-09-05T05:30:00Z,30.6671,-87.9365,1.123,4.95,1111122 
DISL,ioos:station:DISL:MHPA:1,2017-09-05T06:00:00Z,30.6671,-87.9365,1.144,4.97,1111122 
DISL,ioos:station:DISL:MHPA:1,2017-09-05T06:30:00Z,30.6671,-87.9365,1.158,4.9,1111122 
DISL,ioos:station:DISL:MHPA:1,2017-09-05T07:00:00Z,30.6671,-87.9365,1.185,4.99,1111122 
DISL,ioos:station:DISL:MHPA:1,2017-09-05T07:30:00Z,30.6671,-87.9365,1.204,4.35,1111122 
DISL,ioos:station:DISL:MHPA:1,2017-09-05T08:00:00Z,30.6671,-87.9365,1.211,4.11,1111122 
DISL,ioos:station:DISL:MHPA:1,2017-09-05T08:30:00Z,30.6671,-87.9365,1.225,4.29,1111122 
DISL,ioos:station:DISL:MHPA:1,2017-09-05T09:00:00Z,30.6671,-87.9365,1.233,4.72,1111122 
DISL,ioos:station:DISL:MHPA:1,2017-09-05T09:30:00Z,30.6671,-87.9365,1.229,5.06,1111122 
DISL,ioos:station:DISL:MHPA:1,2017-09-05T10:00:00Z,30.6671,-87.9365,1.242,4.89,1111122 
DISL,ioos:station:DISL:MHPA:1,2017-09-05T10:30:00Z,30.6671,-87.9365,1.245,4.96,1111122 
DISL,ioos:station:DISL:MHPA:1,2017-09-05T11:00:00Z,30.6671,-87.9365,1.251,4.63,1111122 
DISL,ioos:station:DISL:MHPA:1,2017-09-05T11:30:00Z,30.6671,-87.9365,1.245,4.3,1111122 
DISL,ioos:station:DISL:MHPA:1,2017-09-05T12:00:00Z,30.6671,-87.9365,1.252,4.74,1111122 
DISL,ioos:station:DISL:MHPA:1,2017-09-05T12:30:00Z,30.6671,-87.9365,1.283,4.27,1111122 
DISL,ioos:station:DISL:MHPA:1,2017-09-05T13:00:00Z,30.6671,-87.9365,1.293,4.04,1111122 
DISL,ioos:station:DISL:MHPA:1,2017-09-05T13:30:00Z,30.6671,-87.9365,1.317,4.02,1111122 
DISL,ioos:station:DISL:MHPA:1,2017-09-05T14:00:00Z,30.6671,-87.9365,1.346,3.9,1111122 
DISL,ioos:station:DISL:MHPA:1,2017-09-05T14:30:00Z,30.6671,-87.9365,1.372,4.82,1111122 
DISL,ioos:station:DISL:MHPA:1,2017-09-05T15:00:00Z,30.6671,-87.9365,1.383,4.34,1111122 
DISL,ioos:station:DISL:MHPA:1,2017-09-05T15:30:00Z,30.6671,-87.9365,1.411,4.43,1111122 
DISL,ioos:station:DISL:MHPA:1,2017-09-05T16:00:00Z,30.6671,-87.9365,1.43,5.02,1111122 
DISL,ioos:station:DISL:MHPA:1,2017-09-05T16:30:00Z,30.6671,-87.9365,1.441,4.35,1111122 
DISL,ioos:station:DISL:MHPA:1,2017-09-05T17:00:00Z,30.6671,-87.9365,1.45,4.5,1111122 
DISL,ioos:station:DISL:MHPA:1,2017-09-05T17:30:00Z,30.6671,-87.9365,1.454,4.8,1111122 
DISL,ioos:station:DISL:MHPA:1,2017-09-05T18:00:00Z,30.6671,-87.9365,1.465,5.09,1111122 
DISL,ioos:station:DISL:MHPA:1,2017-09-05T18:30:00Z,30.6671,-87.9365,1.464,5.47,1111122 
DISL,ioos:station:DISL:MHPA:1,2017-09-05T19:00:00Z,30.6671,-87.9365,1.446,5.56,1111122 
DISL,ioos:station:DISL:MHPA:1,2017-09-05T19:30:00Z,30.6671,-87.9365,1.443,5.48,1111122 
DISL,ioos:station:DISL:MHPA:1,2017-09-05T20:00:00Z,30.6671,-87.9365,1.428,5.58,1111122 
DISL,ioos:station:DISL:MHPA:1,2017-09-05T20:30:00Z,30.6671,-87.9365,1.397,6.02,1111122 
DISL,ioos:station:DISL:MHPA:1,2017-09-05T21:00:00Z,30.6671,-87.9365,1.372,5.74,1111122 
DISL,ioos:station:DISL:MHPA:1,2017-09-05T21:30:00Z,30.6671,-87.9365,1.357,5.37,1111122 
DISL,ioos:station:DISL:MHPA:1,2017-09-05T22:00:00Z,30.6671,-87.9365,1.345,7.25,1111122 
DISL,ioos:station:DISL:MHPA:1,2017-09-05T22:30:00Z,30.6671,-87.9365,1.307,7.34,1111122 
DISL,ioos:station:DISL:MHPA:1,2017-09-05T23:00:00Z,30.6671,-87.9365,1.27,7.66,1111122 
DISL,ioos:station:DISL:MHPA:1,2017-09-05T23:30:00Z,30.6671,-87.9365,1.251,8.0,1111122 
DISL,ioos:station:DISL:MHPA:1,2017-09-06T00:00:00Z,30.6671,-87.9365,1.225,7.87,1111122 
DISL,ioos:station:DISL:MHPA:1,2017-09-06T00:30:00Z,30.6671,-87.9365,1.196,6.98,1111122 
DISL,ioos:station:DISL:MHPA:1,2017-09-06T01:00:00Z,30.6671,-87.9365,1.164,6.91,1111122 
DISL,ioos:station:DISL:MHPA:1,2017-09-06T01:30:00Z,30.6671,-87.9365,1.141,5.31,1111122 
DISL,ioos:station:DISL:MHPA:1,2017-09-06T02:00:00Z,30.6671,-87.9365,1.131,5.04,1111122 
DISL,ioos:station:DISL:MHPA:1,2017-09-06T02:30:00Z,30.6671,-87.9365,1.131,5.52,1111122 
DISL,ioos:station:DISL:MHPA:1,2017-09-06T03:00:00Z,30.6671,-87.9365,1.143,5.5,1111122 
DISL,ioos:station:DISL:MHPA:1,2017-09-06T03:30:00Z,30.6671,-87.9365,1.152,5.82,1111122 
DISL,ioos:station:DISL:MHPA:1,2017-09-06T04:00:00Z,30.6671,-87.9365,1.181,6.1,1111122 
DISL,ioos:station:DISL:MHPA:1,2017-09-06T04:30:00Z,30.6671,-87.9365,1.209,5.76,1111122 
DISL,ioos:station:DISL:MHPA:1,2017-09-06T05:00:00Z,30.6671,-87.9365,1.211,5.67,1111122 
DISL,ioos:station:DISL:MHPA:1,2017-09-06T05:30:00Z,30.6671,-87.9365,1.21,4.72,1111122 
DISL,ioos:station:DISL:MHPA:1,2017-09-06T06:00:00Z,30.6671,-87.9365,1.17,4.71,1111122 
DISL,ioos:station:DISL:MHPA:1,2017-09-06T06:30:00Z,30.6671,-87.9365,1.1,5.2,1111122 
DISL,ioos:station:DISL:MHPA:1,2017-09-06T07:00:00Z,30.6671,-87.9365,1.068,4.65,1111122 
DISL,ioos:station:DISL:MHPA:1,2017-09-06T07:30:00Z,30.6671,-87.9365,1.109,5.36,1111122 
DISL,ioos:station:DISL:MHPA:1,2017-09-06T08:00:00Z,30.6671,-87.9365,1.079,5.69,1111122 
DISL,ioos:station:DISL:MHPA:1,2017-09-06T08:30:00Z,30.6671,-87.9365,1.111,6.11,1111122 
DISL,ioos:station:DISL:MHPA:1,2017-09-06T09:00:00Z,30.6671,-87.9365,1.092,5.94,1111122 
DISL,ioos:station:DISL:MHPA:1,2017-09-06T09:30:00Z,30.6671,-87.9365,1.169,5.15,1111122 
DISL,ioos:station:DISL:MHPA:1,2017-09-06T10:00:00Z,30.6671,-87.9365,1.262,4.97,1111122 
DISL,ioos:station:DISL:MHPA:1,2017-09-06T10:30:00Z,30.6671,-87.9365,1.158,4.49,1111122 
DISL,ioos:station:DISL:MHPA:1,2017-09-06T11:00:00Z,30.6671,-87.9365,1.128,4.82,1111122 
DISL,ioos:station:DISL:MHPA:1,2017-09-06T11:30:00Z,30.6671,-87.9365,1.172,5.0,1111122 
DISL,ioos:station:DISL:MHPA:1,2017-09-06T12:00:00Z,30.6671,-87.9365,1.119,4.21,1111122 
DISL,ioos:station:DISL:MHPA:1,2017-09-06T12:30:00Z,30.6671,-87.9365,1.106,4.83,1111122 
DISL,ioos:station:DISL:MHPA:1,2017-09-06T13:00:00Z,30.6671,-87.9365,1.124,5.18,1111122 
DISL,ioos:station:DISL:MHPA:1,2017-09-06T13:30:00Z,30.6671,-87.9365,1.191,5.14,1111122 
DISL,ioos:station:DISL:MHPA:1,2017-09-06T14:00:00Z,30.6671,-87.9365,1.266,4.1,1111122 
DISL,ioos:station:DISL:MHPA:1,2017-09-06T14:30:00Z,30.6671,-87.9365,1.277,4.0,1111122 
DISL,ioos:station:DISL:MHPA:1,2017-09-06T15:00:00Z,30.6671,-87.9365,1.292,4.29,1111122 
DISL,ioos:station:DISL:MHPA:1,2017-09-06T15:30:00Z,30.6671,-87.9365,1.306,4.61,1111122 